Time,TemperatureF,DewpointF,PressureIn,WindDirection,WindDirectionDegrees,WindSpeedMPH,WindSpeedGustMPH,Humidity,HourlyPrecipIn,Conditions,Clouds,dailyrainin,SoftwareType,DateUTC
2013-01-31 00:05:00,41.7,36.0,29.81,North,5,3.0,9.0,79,0.00,,,0.00,weatherlink.com 1.10,2013-01-31 05:05:00,
2013-01-31 00:20:00,41.6,35.0,29.82,SSW,197,3.0,12.0,78,0.00,,,0.00,weatherlink.com 1.10,2013-01-31 05:20:00,
2013-01-31 00:35:00,41.5,34.0,29.83,WNW,300,0.0,7.0,76,0.00,,,0.00,weatherlink.com 1.10,2013-01-31 05:35:00,
2013-01-31 00:50:00,41.5,34.0,29.85,NW,321,4.0,7.0,76,0.00,,,0.00,weatherlink.com 1.10,2013-01-31 05:50:00,
2013-01-31 01:05:00,40.6,34.0,29.86,ENE,71,1.0,13.0,78,0.00,,,0.00,weatherlink.com 1.10,2013-01-31 06:05:00,
2013-01-31 01:20:00,40.0,34.0,29.87,NW,315,4.0,14.0,78,0.00,,,0.00,weatherlink.com 1.10,2013-01-31 06:20:00,
2013-01-31 01:35:00,39.6,32.0,29.87,NNE,15,6.0,13.0,75,0.00,,,0.00,weatherlink.com 1.10,2013-01-31 06:35:00,
2013-01-31 01:50:00,38.9,30.0,29.89,ESE,113,2.0,13.0,71,0.00,,,0.00,weatherlink.com 1.10,2013-01-31 06:50:00,
2013-01-31 02:05:00,38.3,30.0,29.90,NE,53,3.0,12.0,71,0.00,,,0.00,weatherlink.com 1.10,2013-01-31 07:05:00,
2013-01-31 02:21:00,38.1,29.0,29.91,NNW,330,0.0,8.0,69,0.00,,,0.00,weatherlink.com 1.10,2013-01-31 07:21:00,
2013-01-31 02:36:00,38.1,29.0,29.92,West,260,12.0,12.0,71,0.00,,,0.00,weatherlink.com 1.10,2013-01-31 07:36:00,
2013-01-31 02:51:00,38.1,29.0,29.92,South,186,4.0,8.0,71,0.00,,,0.00,weatherlink.com 1.10,2013-01-31 07:51:00,
2013-01-31 03:06:00,38.0,30.0,29.93,NNE,20,2.0,7.0,72,0.00,,,0.00,weatherlink.com 1.10,2013-01-31 08:06:00,
2013-01-31 03:21:00,38.0,30.0,29.93,NE,48,0.0,4.0,72,0.00,,,0.00,weatherlink.com 1.10,2013-01-31 08:21:00,
2013-01-31 03:36:00,37.9,29.0,29.94,North,350,0.0,4.0,71,0.00,,,0.00,weatherlink.com 1.10,2013-01-31 08:36:00,
2013-01-31 03:51:00,37.8,28.0,29.94,SSE,155,2.0,13.0,67,0.00,,,0.00,weatherlink.com 1.10,2013-01-31 08:51:00,
2013-01-31 04:06:00,37.5,29.0,29.95,WNW,282,1.0,10.0,72,0.00,,,0.00,weatherlink.com 1.10,2013-01-31 09:06:00,
2013-01-31 04:21:00,37.3,26.0,29.96,SSE,167,3.0,8.0,65,0.00,,,0.00,weatherlink.com 1.10,2013-01-31 09:21:00,
2013-01-31 04:36:00,37.1,26.0,29.95,WSW,243,6.0,7.0,64,0.00,,,0.00,weatherlink.com 1.10,2013-01-31 09:36:00,
2013-01-31 04:51:00,37.0,26.0,29.97,NNE,18,2.0,8.0,64,0.00,,,0.00,weatherlink.com 1.10,2013-01-31 09:51:00,
2013-01-31 05:06:00,36.9,26.0,29.97,SW,218,0.0,7.0,64,0.00,,,0.00,weatherlink.com 1.10,2013-01-31 10:06:00,
2013-01-31 05:21:00,36.8,26.0,29.98,WSW,242,2.0,13.0,66,0.00,,,0.00,weatherlink.com 1.10,2013-01-31 10:21:00,
2013-01-31 05:36:00,36.7,28.0,29.99,East,84,1.0,4.0,72,0.00,,,0.00,weatherlink.com 1.10,2013-01-31 10:36:00,
2013-01-31 05:51:00,36.3,29.0,30.00,East,79,3.0,5.0,74,0.00,,,0.00,weatherlink.com 1.10,2013-01-31 10:51:00,
2013-01-31 06:06:00,36.2,28.0,30.01,SSW,210,5.0,7.0,73,0.00,,,0.00,weatherlink.com 1.10,2013-01-31 11:06:00,
2013-01-31 06:21:00,35.9,28.0,30.02,SSW,195,1.0,8.0,74,0.00,,,0.00,weatherlink.com 1.10,2013-01-31 11:21:00,
2013-01-31 06:36:00,35.6,28.0,30.02,NW,305,0.0,6.0,73,0.00,,,0.00,weatherlink.com 1.10,2013-01-31 11:36:00,
2013-01-31 06:51:00,35.1,27.0,30.02,West,278,0.0,7.0,73,0.00,,,0.00,weatherlink.com 1.10,2013-01-31 11:51:00,
2013-01-31 07:06:00,34.5,27.0,30.03,NNE,30,1.0,7.0,73,0.00,,,0.00,weatherlink.com 1.10,2013-01-31 12:06:00,
2013-01-31 07:21:00,34.3,27.0,30.03,ENE,63,3.0,7.0,74,0.00,,,0.00,weatherlink.com 1.10,2013-01-31 12:21:00,
2013-01-31 07:36:00,34.0,27.0,30.04,WSW,253,6.0,6.0,75,0.00,,,0.00,weatherlink.com 1.10,2013-01-31 12:36:00,
2013-01-31 07:51:00,33.7,27.0,30.04,WSW,255,3.0,4.0,76,0.00,,,0.00,weatherlink.com 1.10,2013-01-31 12:51:00,
2013-01-31 08:06:00,33.7,27.0,30.05,SSW,205,2.0,7.0,76,0.00,,,0.00,weatherlink.com 1.10,2013-01-31 13:06:00,
2013-01-31 08:22:00,33.7,27.0,30.06,ESE,117,1.0,8.0,76,0.00,,,0.00,weatherlink.com 1.10,2013-01-31 13:22:00,
2013-01-31 08:37:00,33.9,27.0,30.07,East,101,0.0,6.0,75,0.00,,,0.00,weatherlink.com 1.10,2013-01-31 13:37:00,
2013-01-31 08:52:00,34.3,26.0,30.07,WNW,300,1.0,8.0,73,0.00,,,0.00,weatherlink.com 1.10,2013-01-31 13:52:00,
2013-01-31 09:07:00,34.6,27.0,30.07,NE,41,0.0,10.0,73,0.00,,,0.00,weatherlink.com 1.10,2013-01-31 14:07:00,
2013-01-31 09:22:00,34.9,27.0,30.08,NW,325,0.0,8.0,72,0.00,,,0.00,weatherlink.com 1.10,2013-01-31 14:22:00,
2013-01-31 09:37:00,35.4,27.0,30.09,SW,227,4.0,9.0,71,0.00,,,0.00,weatherlink.com 1.10,2013-01-31 14:37:00,
2013-01-31 09:52:00,35.8,27.0,30.10,NNE,30,2.0,7.0,71,0.00,,,0.00,weatherlink.com 1.10,2013-01-31 14:52:00,
2013-01-31 10:07:00,36.1,28.0,30.10,ENE,66,3.0,9.0,71,0.00,,,0.00,weatherlink.com 1.10,2013-01-31 15:07:00,
2013-01-31 10:22:00,36.4,27.0,30.10,North,1,2.0,9.0,70,0.00,,,0.00,weatherlink.com 1.10,2013-01-31 15:22:00,
2013-01-31 10:37:00,37.2,27.0,30.11,NW,325,3.0,9.0,68,0.00,,,0.00,weatherlink.com 1.10,2013-01-31 15:37:00,
2013-01-31 10:52:00,38.1,28.0,30.11,NE,44,0.0,6.0,67,0.00,,,0.00,weatherlink.com 1.10,2013-01-31 15:52:00,
2013-01-31 11:07:00,39.1,28.0,30.13,East,84,2.0,9.0,65,0.00,,,0.00,weatherlink.com 1.10,2013-01-31 16:07:00,
2013-01-31 11:22:00,39.7,28.0,30.12,ENE,57,0.0,7.0,63,0.00,,,0.00,weatherlink.com 1.10,2013-01-31 16:22:00,
2013-01-31 11:37:00,40.9,28.0,30.13,North,3,3.0,6.0,60,0.00,,,0.00,weatherlink.com 1.10,2013-01-31 16:37:00,
2013-01-31 11:52:00,42.0,28.0,30.13,SSE,160,6.0,8.0,58,0.00,,,0.00,weatherlink.com 1.10,2013-01-31 16:52:00,
2013-01-31 12:07:00,42.6,28.0,30.14,SSE,152,2.0,8.0,56,0.00,,,0.00,weatherlink.com 1.10,2013-01-31 17:07:00,
2013-01-31 12:37:00,43.5,28.0,30.15,NNE,15,2.0,9.0,54,0.00,,,0.00,weatherlink.com 1.10,2013-01-31 17:37:00,
2013-01-31 12:52:00,43.9,27.0,30.14,NE,37,1.0,11.0,52,0.00,,,0.00,weatherlink.com 1.10,2013-01-31 17:52:00,
2013-01-31 13:07:00,44.7,28.0,30.13,East,84,4.0,7.0,52,0.00,,,0.00,weatherlink.com 1.10,2013-01-31 18:07:00,
2013-01-31 13:22:00,45.3,28.0,30.13,North,4,4.0,10.0,51,0.00,,,0.00,weatherlink.com 1.10,2013-01-31 18:22:00,
2013-01-31 13:37:00,45.3,27.0,30.13,SSE,156,3.0,10.0,49,0.00,,,0.00,weatherlink.com 1.10,2013-01-31 18:37:00,
2013-01-31 13:52:00,45.9,28.0,30.13,North,11,2.0,10.0,49,0.00,,,0.00,weatherlink.com 1.10,2013-01-31 18:52:00,
2013-01-31 14:07:00,46.1,28.0,30.13,SSE,159,2.0,8.0,49,0.00,,,0.00,weatherlink.com 1.10,2013-01-31 19:07:00,
2013-01-31 14:22:00,46.6,27.0,30.13,West,280,3.0,7.0,47,0.00,,,0.00,weatherlink.com 1.10,2013-01-31 19:22:00,
2013-01-31 14:37:00,46.6,28.0,30.13,WNW,284,0.0,18.0,48,0.00,,,0.00,weatherlink.com 1.10,2013-01-31 19:37:00,
2013-01-31 14:52:00,47.9,27.0,30.13,WSW,249,0.0,5.0,45,0.00,,,0.00,weatherlink.com 1.10,2013-01-31 19:52:00,
2013-01-31 15:07:00,48.2,27.0,30.13,SE,140,0.0,7.0,44,0.00,,,0.00,weatherlink.com 1.10,2013-01-31 20:07:00,
2013-01-31 15:22:00,48.5,25.0,30.13,NNE,31,1.0,12.0,40,0.00,,,0.00,weatherlink.com 1.10,2013-01-31 20:22:00,
2013-01-31 15:37:00,48.9,26.0,30.13,West,259,7.0,10.0,41,0.00,,,0.00,weatherlink.com 1.10,2013-01-31 20:37:00,
2013-01-31 15:52:00,49.3,27.0,30.12,ENE,63,0.0,4.0,42,0.00,,,0.00,weatherlink.com 1.10,2013-01-31 20:52:00,
2013-01-31 16:07:00,49.4,25.0,30.12,NNE,19,3.0,10.0,39,0.00,,,0.00,weatherlink.com 1.10,2013-01-31 21:07:00,
2013-01-31 16:23:00,49.6,27.0,30.13,West,274,3.0,10.0,41,0.00,,,0.00,weatherlink.com 1.10,2013-01-31 21:23:00,
2013-01-31 16:38:00,49.0,26.0,30.13,WSW,257,2.0,13.0,41,0.00,,,0.00,weatherlink.com 1.10,2013-01-31 21:38:00,
2013-01-31 16:53:00,49.2,27.0,30.13,ENE,63,0.0,6.0,42,0.00,,,0.00,weatherlink.com 1.10,2013-01-31 21:53:00,
2013-01-31 17:08:00,48.7,26.0,30.13,West,261,6.0,11.0,42,0.00,,,0.00,weatherlink.com 1.10,2013-01-31 22:08:00,
2013-01-31 17:23:00,48.2,26.0,30.13,North,4,2.0,11.0,43,0.00,,,0.00,weatherlink.com 1.10,2013-01-31 22:23:00,
2013-01-31 17:38:00,46.9,26.0,30.13,ENE,75,0.0,8.0,45,0.00,,,0.00,weatherlink.com 1.10,2013-01-31 22:38:00,
2013-01-31 17:53:00,45.5,26.0,30.13,WNW,283,1.0,11.0,46,0.00,,,0.00,weatherlink.com 1.10,2013-01-31 22:53:00,
2013-01-31 18:08:00,44.6,26.0,30.13,SW,221,0.0,5.0,48,0.00,,,0.00,weatherlink.com 1.10,2013-01-31 23:08:00,
2013-01-31 18:23:00,44.0,26.0,30.14,NW,314,0.0,3.0,49,0.00,,,0.00,weatherlink.com 1.10,2013-01-31 23:23:00,
2013-01-31 18:38:00,43.3,26.0,30.14,West,274,0.0,1.0,51,0.00,,,0.00,weatherlink.com 1.10,2013-01-31 23:38:00,
2013-01-31 18:52:00,42.9,26.0,30.15,SSW,201,0.0,3.0,51,0.00,,,0.00,weatherlink.com 1.10,2013-01-31 23:52:00,
2013-01-31 19:08:00,42.4,26.0,30.15,WSW,249,0.0,1.0,53,0.00,,,0.00,weatherlink.com 1.10,2013-02-01 00:08:00,
2013-01-31 19:23:00,41.6,26.0,30.15,WSW,237,0.0,1.0,55,0.00,,,0.00,weatherlink.com 1.10,2013-02-01 00:23:00,
2013-01-31 19:38:00,41.1,26.0,30.16,SW,232,0.0,1.0,56,0.00,,,0.00,weatherlink.com 1.10,2013-02-01 00:38:00,
2013-01-31 19:53:00,40.8,26.0,30.16,SW,228,0.0,3.0,56,0.00,,,0.00,weatherlink.com 1.10,2013-02-01 00:53:00,
2013-01-31 20:08:00,40.2,26.0,30.16,SW,228,0.0,0.0,58,0.00,,,0.00,weatherlink.com 1.10,2013-02-01 01:08:00,
2013-01-31 20:23:00,38.9,26.0,30.16,SW,227,0.0,0.0,61,0.00,,,0.00,weatherlink.com 1.10,2013-02-01 01:23:00,
2013-01-31 20:38:00,39.0,26.0,30.17,SW,215,0.0,1.0,61,0.00,,,0.00,weatherlink.com 1.10,2013-02-01 01:38:00,
2013-01-31 20:53:00,39.5,26.0,30.17,WSW,258,1.0,2.0,60,0.00,,,0.00,weatherlink.com 1.10,2013-02-01 01:53:00,
2013-01-31 21:08:00,39.9,27.0,30.18,WSW,253,0.0,2.0,60,0.00,,,0.00,weatherlink.com 1.10,2013-02-01 02:08:00,
2013-01-31 21:22:00,40.4,27.0,30.18,NNE,24,0.0,6.0,59,0.00,,,0.00,weatherlink.com 1.10,2013-02-01 02:22:00,
2013-01-31 21:37:00,40.6,27.0,30.18,NNE,19,0.0,4.0,58,0.00,,,0.00,weatherlink.com 1.10,2013-02-01 02:37:00,
2013-01-31 21:52:00,40.5,27.0,30.18,West,278,1.0,3.0,58,0.00,,,0.00,weatherlink.com 1.10,2013-02-01 02:52:00,
2013-01-31 22:07:00,40.3,27.0,30.18,SW,222,2.0,4.0,59,0.00,,,0.00,weatherlink.com 1.10,2013-02-01 03:07:00,
2013-01-31 22:22:00,40.3,27.0,30.18,SW,224,0.0,5.0,59,0.00,,,0.00,weatherlink.com 1.10,2013-02-01 03:22:00,
2013-01-31 22:37:00,40.3,27.0,30.18,SW,229,0.0,4.0,59,0.00,,,0.00,weatherlink.com 1.10,2013-02-01 03:37:00,
2013-01-31 22:52:00,40.4,27.0,30.18,WSW,252,0.0,4.0,60,0.00,,,0.00,weatherlink.com 1.10,2013-02-01 03:52:00,
2013-01-31 23:07:00,40.4,27.0,30.18,ESE,102,1.0,7.0,60,0.00,,,0.00,weatherlink.com 1.10,2013-02-01 04:07:00,
2013-01-31 23:22:00,40.4,27.0,30.19,WSW,257,0.0,9.0,60,0.00,,,0.00,weatherlink.com 1.10,2013-02-01 04:22:00,
2013-01-31 23:37:00,40.3,28.0,30.19,SSW,204,0.0,7.0,61,0.00,,,0.00,weatherlink.com 1.10,2013-02-01 04:37:00,
2013-01-31 23:52:00,40.1,27.0,30.18,North,4,0.0,3.0,61,0.00,,,0.00,weatherlink.com 1.10,2013-02-01 04:52:00,